Time,TemperatureF,DewpointF,PressureIn,WindDirection,WindDirectionDegrees,WindSpeedMPH,WindSpeedGustMPH,Humidity,HourlyPrecipIn,Conditions,Clouds,dailyrainin,SolarRadiationWatts/m^2,SoftwareType,DateUTC
2013-06-15 00:02:00,58.8,56.8,30.01,NE,45,0.0,1.0,90,0.00,,,0.01,0.0,meteohub,2013-06-15 04:02:00,
2013-06-15 00:03:00,58.6,56.7,30.01,NE,45,0.0,1.0,90,0.00,,,0.01,0.0,meteohub,2013-06-15 04:03:00,
2013-06-15 00:06:00,58.6,56.7,30.02,NE,45,0.0,1.0,90,0.00,,,0.00,0.0,meteohub,2013-06-15 04:06:00,
2013-06-15 00:07:00,58.6,56.7,30.02,NE,45,0.0,1.0,90,0.00,,,0.00,0.0,meteohub,2013-06-15 04:07:00,
2013-06-15 00:09:00,58.5,56.5,30.02,NE,45,0.0,1.0,90,0.00,,,0.00,0.0,meteohub,2013-06-15 04:09:00,
2013-06-15 00:15:00,58.5,56.5,30.02,NE,45,0.0,0.0,90,0.00,,,0.00,0.0,meteohub,2013-06-15 04:15:00,
2013-06-15 00:22:00,58.3,56.3,30.02,NE,45,0.0,0.0,90,0.00,,,0.00,0.0,meteohub,2013-06-15 04:22:00,
2013-06-15 00:27:00,58.3,56.3,30.02,NE,45,0.0,0.0,90,0.00,,,0.00,0.0,meteohub,2013-06-15 04:27:00,
2013-06-15 00:32:00,58.1,56.1,30.03,NE,45,0.0,0.0,90,0.00,,,0.00,0.0,meteohub,2013-06-15 04:32:00,
2013-06-15 00:37:00,58.1,56.1,30.03,NE,45,0.0,0.0,90,0.00,,,0.00,0.0,meteohub,2013-06-15 04:37:00,
2013-06-15 00:42:00,57.9,55.9,30.03,NE,45,0.0,0.0,90,0.00,,,0.00,0.0,meteohub,2013-06-15 04:42:00,
2013-06-15 00:47:00,57.7,55.8,30.03,NE,45,0.0,0.0,90,0.00,,,0.00,0.0,meteohub,2013-06-15 04:47:00,
2013-06-15 00:52:00,57.6,55.6,30.03,NE,45,0.0,0.0,90,0.00,,,0.00,0.0,meteohub,2013-06-15 04:52:00,
2013-06-15 00:57:00,57.6,55.6,30.03,NE,45,0.0,0.0,90,0.00,,,0.00,0.0,meteohub,2013-06-15 04:57:00,
2013-06-15 01:02:00,57.4,55.4,30.03,NE,45,0.0,1.0,90,0.00,,,0.00,0.0,meteohub,2013-06-15 05:02:00,
2013-06-15 01:07:00,57.4,55.4,30.03,NE,45,0.0,1.0,90,0.00,,,0.00,0.0,meteohub,2013-06-15 05:07:00,
2013-06-15 01:12:00,57.2,55.2,30.03,NE,45,0.0,1.0,90,0.00,,,0.00,0.0,meteohub,2013-06-15 05:12:00,
2013-06-15 01:17:00,57.0,55.0,30.03,NE,45,0.0,0.0,90,0.00,,,0.00,0.0,meteohub,2013-06-15 05:17:00,
2013-06-15 01:22:00,57.0,55.2,30.03,NE,45,0.0,1.0,91,0.00,,,0.00,0.0,meteohub,2013-06-15 05:22:00,
2013-06-15 01:27:00,57.0,55.2,30.03,NE,45,0.0,1.0,91,0.00,,,0.00,0.0,meteohub,2013-06-15 05:27:00,
2013-06-15 01:32:00,56.8,54.9,30.03,NE,45,0.0,1.0,90,0.00,,,0.00,0.0,meteohub,2013-06-15 05:32:00,
2013-06-15 01:37:00,56.7,54.9,30.03,NE,45,0.0,0.0,91,0.00,,,0.00,0.0,meteohub,2013-06-15 05:37:00,
2013-06-15 01:42:00,56.7,54.9,30.03,NE,45,0.0,0.0,91,0.00,,,0.00,0.0,meteohub,2013-06-15 05:42:00,
2013-06-15 01:47:00,56.7,54.9,30.03,NE,45,0.0,0.0,91,0.00,,,0.00,0.0,meteohub,2013-06-15 05:47:00,
2013-06-15 01:52:00,56.5,54.9,30.03,NE,45,0.0,0.0,91,0.00,,,0.00,0.0,meteohub,2013-06-15 05:52:00,
2013-06-15 01:57:00,56.5,54.9,30.03,NE,45,0.0,0.0,91,0.00,,,0.00,0.0,meteohub,2013-06-15 05:57:00,
2013-06-15 02:02:00,56.5,54.9,30.03,NE,45,0.0,0.0,91,0.00,,,0.00,0.0,meteohub,2013-06-15 06:02:00,
2013-06-15 02:07:00,56.3,54.7,30.03,NE,45,0.0,0.0,91,0.00,,,0.00,0.0,meteohub,2013-06-15 06:07:00,
2013-06-15 02:12:00,56.3,54.7,30.03,NE,45,0.0,0.0,91,0.00,,,0.00,0.0,meteohub,2013-06-15 06:12:00,
2013-06-15 02:17:00,56.3,54.7,30.02,NE,45,0.0,0.0,91,0.00,,,0.00,0.0,meteohub,2013-06-15 06:17:00,
2013-06-15 02:22:00,56.1,54.5,30.02,NE,45,0.0,0.0,91,0.00,,,0.00,0.0,meteohub,2013-06-15 06:22:00,
2013-06-15 02:27:00,56.1,54.5,30.02,NE,45,0.0,0.0,91,0.00,,,0.00,0.0,meteohub,2013-06-15 06:27:00,
2013-06-15 02:32:00,55.8,54.1,30.02,NE,45,0.0,0.0,91,0.00,,,0.00,0.0,meteohub,2013-06-15 06:32:00,
2013-06-15 02:37:00,55.8,54.1,30.02,NE,45,0.0,0.0,91,0.00,,,0.00,0.0,meteohub,2013-06-15 06:37:00,
2013-06-15 02:42:00,55.8,54.1,30.03,NE,45,0.0,0.0,91,0.00,,,0.00,0.0,meteohub,2013-06-15 06:42:00,
2013-06-15 02:47:00,55.8,54.1,30.02,NE,45,0.0,0.0,91,0.00,,,0.00,0.0,meteohub,2013-06-15 06:47:00,
2013-06-15 02:52:00,55.6,54.0,30.02,NE,45,0.0,0.0,91,0.00,,,0.00,0.0,meteohub,2013-06-15 06:52:00,
2013-06-15 02:57:00,55.6,54.0,30.02,NE,45,0.0,0.0,91,0.00,,,0.00,0.0,meteohub,2013-06-15 06:57:00,
2013-06-15 03:02:00,55.4,53.8,30.02,NE,45,0.0,0.0,91,0.00,,,0.00,0.0,meteohub,2013-06-15 07:02:00,
2013-06-15 03:07:00,55.4,53.8,30.02,NE,45,0.0,0.0,91,0.00,,,0.00,0.0,meteohub,2013-06-15 07:07:00,
2013-06-15 03:12:00,55.2,53.6,30.02,NE,45,0.0,0.0,91,0.00,,,0.00,0.0,meteohub,2013-06-15 07:12:00,
2013-06-15 03:17:00,55.2,53.6,30.02,NE,45,0.0,1.0,91,0.00,,,0.00,0.0,meteohub,2013-06-15 07:17:00,
2013-06-15 03:22:00,55.2,53.6,30.02,NE,45,0.0,1.0,91,0.00,,,0.00,0.0,meteohub,2013-06-15 07:22:00,
2013-06-15 03:27:00,55.2,53.6,30.02,NE,45,0.0,1.0,91,0.00,,,0.00,0.0,meteohub,2013-06-15 07:27:00,
2013-06-15 03:32:00,55.0,53.4,30.02,NE,45,0.0,1.0,91,0.00,,,0.00,0.0,meteohub,2013-06-15 07:32:00,
2013-06-15 03:37:00,54.9,53.2,30.03,NE,45,0.0,0.0,91,0.00,,,0.00,0.0,meteohub,2013-06-15 07:37:00,
2013-06-15 03:42:00,54.9,53.2,30.02,NE,45,0.0,0.0,91,0.00,,,0.00,0.0,meteohub,2013-06-15 07:42:00,
2013-06-15 03:47:00,54.7,53.1,30.02,NE,45,0.0,0.0,91,0.00,,,0.00,0.0,meteohub,2013-06-15 07:47:00,
2013-06-15 03:52:00,54.7,53.1,30.02,NE,45,0.0,0.0,91,0.00,,,0.00,0.0,meteohub,2013-06-15 07:52:00,
2013-06-15 03:57:00,54.5,52.9,30.02,NE,45,0.0,0.0,91,0.00,,,0.00,0.0,meteohub,2013-06-15 07:57:00,
2013-06-15 04:02:00,54.5,52.9,30.02,NE,45,0.0,0.0,91,0.00,,,0.00,0.0,meteohub,2013-06-15 08:02:00,
2013-06-15 04:07:00,54.3,52.7,30.02,NE,45,0.0,0.0,91,0.00,,,0.00,0.0,meteohub,2013-06-15 08:07:00,
2013-06-15 04:12:00,54.3,52.7,30.02,NE,45,0.0,0.0,91,0.00,,,0.00,0.0,meteohub,2013-06-15 08:12:00,
2013-06-15 04:17:00,54.3,52.7,30.02,NE,45,0.0,0.0,91,0.00,,,0.00,0.0,meteohub,2013-06-15 08:17:00,
2013-06-15 04:22:00,54.1,52.5,30.02,NE,45,0.0,0.0,91,0.00,,,0.00,0.0,meteohub,2013-06-15 08:22:00,
2013-06-15 04:27:00,54.0,52.3,30.02,NE,45,0.0,1.0,91,0.00,,,0.00,0.0,meteohub,2013-06-15 08:27:00,
2013-06-15 04:32:00,54.0,52.3,30.02,NE,45,0.0,1.0,91,0.00,,,0.00,0.0,meteohub,2013-06-15 08:32:00,
2013-06-15 04:37:00,54.0,52.3,30.03,NE,45,0.0,1.0,91,0.00,,,0.00,0.0,meteohub,2013-06-15 08:37:00,
2013-06-15 04:42:00,54.0,52.3,30.03,NE,45,0.0,0.0,91,0.00,,,0.00,0.0,meteohub,2013-06-15 08:42:00,
2013-06-15 04:47:00,54.0,52.3,30.03,NE,45,0.0,0.0,91,0.00,,,0.00,0.0,meteohub,2013-06-15 08:47:00,
2013-06-15 04:52:00,53.8,52.2,30.04,NE,45,0.0,0.0,91,0.00,,,0.00,0.0,meteohub,2013-06-15 08:52:00,
2013-06-15 04:57:00,53.8,52.2,30.04,NE,45,0.0,0.0,91,0.00,,,0.00,0.0,meteohub,2013-06-15 08:57:00,
2013-06-15 05:02:00,53.8,52.2,30.04,NE,45,0.0,0.0,91,0.00,,,0.00,0.0,meteohub,2013-06-15 09:02:00,
2013-06-15 05:07:00,53.6,52.0,30.04,NE,45,0.0,0.0,91,0.00,,,0.00,0.0,meteohub,2013-06-15 09:07:00,
2013-06-15 05:12:00,53.6,52.0,30.04,NE,45,0.0,0.0,91,0.00,,,0.00,0.0,meteohub,2013-06-15 09:12:00,
2013-06-15 05:17:00,53.6,52.0,30.05,NE,45,0.0,0.0,91,0.00,,,0.00,0.0,meteohub,2013-06-15 09:17:00,
2013-06-15 05:22:00,53.4,51.8,30.05,NE,45,0.0,0.0,91,0.00,,,0.00,0.0,meteohub,2013-06-15 09:22:00,
2013-06-15 05:27:00,53.4,51.8,30.05,NE,45,0.0,0.0,91,0.00,,,0.00,0.0,meteohub,2013-06-15 09:27:00,
2013-06-15 05:32:00,53.4,51.8,30.05,NE,45,0.0,0.0,91,0.00,,,0.00,0.0,meteohub,2013-06-15 09:32:00,
2013-06-15 05:37:00,53.2,51.6,30.06,NE,45,0.0,0.0,91,0.00,,,0.00,0.0,meteohub,2013-06-15 09:37:00,
2013-06-15 05:42:00,53.1,51.4,30.06,NE,45,0.0,0.0,91,0.00,,,0.00,0.0,meteohub,2013-06-15 09:42:00,
2013-06-15 05:47:00,53.1,51.4,30.06,NE,45,0.0,0.0,91,0.00,,,0.00,0.0,meteohub,2013-06-15 09:47:00,
2013-06-15 05:52:00,52.9,51.3,30.07,NE,45,0.0,0.0,91,0.00,,,0.00,0.0,meteohub,2013-06-15 09:52:00,
2013-06-15 05:57:00,52.9,51.3,30.07,NE,45,0.0,0.0,91,0.00,,,0.00,5.0,meteohub,2013-06-15 09:57:00,
2013-06-15 06:02:00,52.9,51.4,30.07,NE,45,0.0,0.0,92,0.00,,,0.00,9.0,meteohub,2013-06-15 10:02:00,
2013-06-15 06:07:00,52.9,51.4,30.07,NE,45,0.0,0.0,92,0.00,,,0.00,11.0,meteohub,2013-06-15 10:07:00,
2013-06-15 06:12:00,52.9,51.4,30.07,NE,45,0.0,0.0,92,0.00,,,0.00,14.0,meteohub,2013-06-15 10:12:00,
2013-06-15 06:17:00,52.9,51.4,30.07,NE,45,0.0,0.0,92,0.00,,,0.00,18.0,meteohub,2013-06-15 10:17:00,
2013-06-15 06:22:00,52.9,51.4,30.08,NE,45,0.0,0.0,92,0.00,,,0.00,21.0,meteohub,2013-06-15 10:22:00,
2013-06-15 06:27:00,52.9,51.4,30.08,NE,45,0.0,0.0,92,0.00,,,0.00,54.0,meteohub,2013-06-15 10:27:00,
2013-06-15 06:32:00,53.1,51.6,30.08,NE,45,0.0,0.0,92,0.00,,,0.00,67.0,meteohub,2013-06-15 10:32:00,
2013-06-15 06:37:00,53.2,51.8,30.08,NE,45,0.0,2.0,92,0.00,,,0.00,81.0,meteohub,2013-06-15 10:37:00,
2013-06-15 06:42:00,53.4,52.0,30.08,NE,45,0.0,2.0,92,0.00,,,0.00,95.0,meteohub,2013-06-15 10:42:00,
2013-06-15 06:47:00,53.6,52.2,30.08,NE,45,0.0,0.0,92,0.00,,,0.00,113.0,meteohub,2013-06-15 10:47:00,
2013-06-15 06:52:00,53.8,52.3,30.08,NE,45,0.0,0.0,92,0.00,,,0.00,128.0,meteohub,2013-06-15 10:52:00,
2013-06-15 06:57:00,54.3,52.9,30.08,NE,45,0.0,0.0,92,0.00,,,0.00,37.0,meteohub,2013-06-15 10:57:00,
2013-06-15 07:02:00,54.5,53.1,30.08,NE,45,0.0,0.0,92,0.00,,,0.00,163.0,meteohub,2013-06-15 11:02:00,
2013-06-15 07:07:00,54.9,53.4,30.09,NE,45,0.0,0.0,92,0.00,,,0.00,179.0,meteohub,2013-06-15 11:07:00,
2013-06-15 07:12:00,55.4,54.0,30.09,NE,45,0.0,0.0,92,0.00,,,0.00,195.0,meteohub,2013-06-15 11:12:00,
2013-06-15 07:17:00,55.8,54.3,30.09,NE,45,0.0,0.0,92,0.00,,,0.00,211.0,meteohub,2013-06-15 11:17:00,
2013-06-15 07:22:00,55.9,54.5,30.09,NE,45,0.0,0.0,92,0.00,,,0.00,229.0,meteohub,2013-06-15 11:22:00,
2013-06-15 07:27:00,56.1,54.7,30.09,NE,45,0.0,0.0,92,0.00,,,0.00,244.0,meteohub,2013-06-15 11:27:00,
2013-06-15 07:32:00,56.7,55.2,30.09,NE,45,0.0,0.0,92,0.00,,,0.00,262.0,meteohub,2013-06-15 11:32:00,
2013-06-15 07:37:00,57.2,55.8,30.09,NE,45,0.0,0.0,92,0.00,,,0.00,279.0,meteohub,2013-06-15 11:37:00,
2013-06-15 07:42:00,57.6,55.8,30.09,NE,45,0.0,0.0,91,0.00,,,0.00,292.0,meteohub,2013-06-15 11:42:00,
2013-06-15 07:47:00,58.1,56.1,30.09,NE,45,0.0,0.0,90,0.00,,,0.00,311.0,meteohub,2013-06-15 11:47:00,
2013-06-15 07:52:00,58.3,56.3,30.09,NNE,31,0.0,1.0,90,0.00,,,0.00,334.0,meteohub,2013-06-15 11:52:00,
2013-06-15 07:57:00,58.8,56.8,30.09,NNE,31,0.0,1.0,90,0.00,,,0.00,359.0,meteohub,2013-06-15 11:57:00,
2013-06-15 08:03:00,59.9,57.9,30.09,NNE,31,0.0,1.0,90,0.00,,,0.00,390.0,meteohub,2013-06-15 12:03:00,
2013-06-15 08:09:00,60.6,57.9,30.09,NNE,31,0.0,0.0,88,0.00,,,0.00,396.0,meteohub,2013-06-15 12:09:00,
2013-06-15 08:15:00,61.3,58.1,30.09,NNE,31,0.0,0.0,86,0.00,,,0.00,424.0,meteohub,2013-06-15 12:15:00,
2013-06-15 08:21:00,62.1,58.5,30.09,NNE,31,0.0,0.0,85,0.00,,,0.00,466.0,meteohub,2013-06-15 12:21:00,
2013-06-15 08:27:00,62.8,58.8,30.09,NNE,31,0.0,1.0,84,0.00,,,0.00,471.0,meteohub,2013-06-15 12:27:00,
2013-06-15 08:32:00,63.1,58.5,30.09,NNE,31,0.0,2.0,82,0.00,,,0.00,420.0,meteohub,2013-06-15 12:32:00,
2013-06-15 08:37:00,63.7,59.7,30.10,NNE,31,0.0,2.0,84,0.00,,,0.00,501.0,meteohub,2013-06-15 12:37:00,
2013-06-15 08:42:00,64.2,59.0,30.09,NNE,31,0.0,2.0,80,0.00,,,0.00,531.0,meteohub,2013-06-15 12:42:00,
2013-06-15 08:47:00,65.1,59.5,30.09,NNE,31,2.0,2.0,79,0.00,,,0.00,547.0,meteohub,2013-06-15 12:47:00,
2013-06-15 08:52:00,65.8,60.4,30.09,NNE,31,0.0,2.0,80,0.00,,,0.00,570.0,meteohub,2013-06-15 12:52:00,
2013-06-15 08:57:00,66.4,60.4,30.09,West,267,0.0,2.0,78,0.00,,,0.00,582.0,meteohub,2013-06-15 12:57:00,
2013-06-15 09:02:00,66.9,61.2,30.09,West,267,0.0,2.0,79,0.00,,,0.00,601.0,meteohub,2013-06-15 13:02:00,
2013-06-15 09:07:00,67.8,61.3,30.09,West,267,0.0,1.0,77,0.00,,,0.00,619.0,meteohub,2013-06-15 13:07:00,
2013-06-15 09:12:00,68.7,60.8,30.09,West,266,1.0,1.0,73,0.00,,,0.00,631.0,meteohub,2013-06-15 13:12:00,
2013-06-15 09:17:00,69.1,61.9,30.09,SE,144,1.0,3.0,75,0.00,,,0.00,649.0,meteohub,2013-06-15 13:17:00,
2013-06-15 09:22:00,69.8,63.0,30.09,NNE,28,1.0,3.0,76,0.00,,,0.00,663.0,meteohub,2013-06-15 13:22:00,
2013-06-15 09:27:00,70.2,60.3,30.10,NNE,28,0.0,3.0,68,0.00,,,0.00,679.0,meteohub,2013-06-15 13:27:00,
2013-06-15 09:32:00,70.9,62.2,30.10,NNE,28,0.0,2.0,71,0.00,,,0.00,693.0,meteohub,2013-06-15 13:32:00,
2013-06-15 09:37:00,71.6,62.1,30.10,West,270,0.0,2.0,69,0.00,,,0.00,707.0,meteohub,2013-06-15 13:37:00,
2013-06-15 09:42:00,72.3,62.8,30.10,West,270,0.0,2.0,69,0.00,,,0.00,722.0,meteohub,2013-06-15 13:42:00,
2013-06-15 09:47:00,72.9,62.4,30.10,West,270,0.0,2.0,67,0.00,,,0.00,737.0,meteohub,2013-06-15 13:47:00,
2013-06-15 09:52:00,73.2,60.3,30.10,West,270,0.0,0.0,61,0.00,,,0.00,751.0,meteohub,2013-06-15 13:52:00,
2013-06-15 09:57:00,73.4,60.4,30.10,West,270,0.0,0.0,61,0.00,,,0.00,763.0,meteohub,2013-06-15 13:57:00,
2013-06-15 10:02:00,74.1,62.8,30.10,SSE,149,0.0,2.0,65,0.00,,,0.00,775.0,meteohub,2013-06-15 14:02:00,
2013-06-15 10:07:00,74.5,61.5,30.10,SSE,151,0.0,3.0,61,0.00,,,0.00,791.0,meteohub,2013-06-15 14:07:00,
2013-06-15 10:12:00,74.5,61.5,30.09,SSE,151,0.0,3.0,61,0.00,,,0.00,805.0,meteohub,2013-06-15 14:12:00,
2013-06-15 10:17:00,75.0,61.5,30.10,SSE,151,0.0,3.0,60,0.00,,,0.00,816.0,meteohub,2013-06-15 14:17:00,
2013-06-15 10:22:00,75.4,61.5,30.09,ESE,117,4.0,4.0,59,0.00,,,0.00,831.0,meteohub,2013-06-15 14:22:00,
2013-06-15 10:27:00,75.7,60.8,30.09,ESE,116,0.0,5.0,57,0.00,,,0.00,846.0,meteohub,2013-06-15 14:27:00,
2013-06-15 10:32:00,76.3,59.9,30.09,South,175,4.0,5.0,54,0.00,,,0.00,856.0,meteohub,2013-06-15 14:32:00,
2013-06-15 10:37:00,76.3,57.4,30.08,SSE,156,3.0,6.0,49,0.00,,,0.00,868.0,meteohub,2013-06-15 14:37:00,
2013-06-15 10:42:00,75.9,57.6,30.08,SSE,160,0.0,8.0,50,0.00,,,0.00,877.0,meteohub,2013-06-15 14:42:00,
2013-06-15 10:47:00,76.1,56.7,30.08,SSW,192,3.0,8.0,48,0.00,,,0.00,888.0,meteohub,2013-06-15 14:47:00,
2013-06-15 10:52:00,76.1,57.7,30.08,East,97,0.0,8.0,50,0.00,,,0.00,898.0,meteohub,2013-06-15 14:52:00,
2013-06-15 10:57:00,76.5,58.1,30.08,South,170,1.0,7.0,50,0.00,,,0.00,907.0,meteohub,2013-06-15 14:57:00,
2013-06-15 11:02:00,76.6,57.2,30.08,South,181,8.0,8.0,48,0.00,,,0.00,916.0,meteohub,2013-06-15 15:02:00,
2013-06-15 11:07:00,76.6,56.7,30.08,SSW,195,7.0,9.0,47,0.00,,,0.00,926.0,meteohub,2013-06-15 15:07:00,
2013-06-15 11:12:00,76.6,57.2,30.09,WSW,240,3.0,9.0,48,0.00,,,0.00,935.0,meteohub,2013-06-15 15:12:00,
2013-06-15 11:17:00,77.0,59.0,30.09,SSE,150,3.0,9.0,51,0.00,,,0.00,946.0,meteohub,2013-06-15 15:17:00,
2013-06-15 11:22:00,77.0,57.4,30.09,SSE,165,0.0,7.0,48,0.00,,,0.00,954.0,meteohub,2013-06-15 15:22:00,
2013-06-15 11:27:00,77.0,57.4,30.08,SE,142,3.0,9.0,48,0.00,,,0.00,965.0,meteohub,2013-06-15 15:27:00,
2013-06-15 11:32:00,77.2,57.6,30.08,ESE,105,4.0,9.0,48,0.00,,,0.00,972.0,meteohub,2013-06-15 15:32:00,
2013-06-15 11:37:00,77.5,59.0,30.08,East,96,2.0,7.0,50,0.00,,,0.00,983.0,meteohub,2013-06-15 15:37:00,
2013-06-15 11:42:00,77.9,58.3,30.08,SSE,168,9.0,9.0,48,0.00,,,0.00,990.0,meteohub,2013-06-15 15:42:00,
2013-06-15 11:47:00,77.7,57.6,30.08,South,184,4.0,10.0,47,0.00,,,0.00,1005.0,meteohub,2013-06-15 15:47:00,
2013-06-15 11:52:00,77.5,58.5,30.08,South,169,5.0,10.0,49,0.00,,,0.00,1005.0,meteohub,2013-06-15 15:52:00,
2013-06-15 11:57:00,77.7,59.7,30.07,SE,130,8.0,10.0,51,0.00,,,0.00,1034.0,meteohub,2013-06-15 15:57:00,
2013-06-15 12:02:00,77.7,57.0,30.07,East,96,3.0,10.0,46,0.00,,,0.00,1058.0,meteohub,2013-06-15 16:02:00,
2013-06-15 12:07:00,77.9,59.9,30.07,ESE,107,4.0,10.0,51,0.00,,,0.00,1053.0,meteohub,2013-06-15 16:07:00,
2013-06-15 12:12:00,78.1,59.5,30.07,ESE,117,4.0,9.0,50,0.00,,,0.00,1086.0,meteohub,2013-06-15 16:12:00,
2013-06-15 12:17:00,78.6,59.5,30.07,WNW,292,0.0,9.0,49,0.00,,,0.00,1072.0,meteohub,2013-06-15 16:17:00,
2013-06-15 12:22:00,79.0,58.1,30.07,South,190,0.0,9.0,46,0.00,,,0.00,1164.0,meteohub,2013-06-15 16:22:00,
2013-06-15 12:27:00,79.0,59.4,30.07,South,190,0.0,5.0,48,0.00,,,0.00,1088.0,meteohub,2013-06-15 16:27:00,
2013-06-15 12:32:00,79.5,58.6,30.06,SE,124,2.0,5.0,46,0.00,,,0.00,1109.0,meteohub,2013-06-15 16:32:00,
2013-06-15 12:37:00,79.9,59.0,30.06,ENE,78,2.0,5.0,46,0.00,,,0.00,1165.0,meteohub,2013-06-15 16:37:00,
2013-06-15 12:42:00,80.2,61.5,30.06,NNW,347,1.0,5.0,50,0.00,,,0.00,258.0,meteohub,2013-06-15 16:42:00,
2013-06-15 12:47:00,79.9,58.5,30.06,South,180,2.0,5.0,45,0.00,,,0.00,1199.0,meteohub,2013-06-15 16:47:00,
2013-06-15 12:52:00,79.7,58.3,30.06,SE,124,3.0,4.0,45,0.00,,,0.00,1176.0,meteohub,2013-06-15 16:52:00,
2013-06-15 12:57:00,79.9,59.5,30.06,ESE,119,0.0,5.0,47,0.00,,,0.00,1208.0,meteohub,2013-06-15 16:57:00,
2013-06-15 13:02:00,79.9,58.5,30.06,SE,136,0.0,5.0,45,0.00,,,0.00,274.0,meteohub,2013-06-15 17:02:00,
2013-06-15 13:07:00,79.7,61.0,30.06,North,11,0.0,5.0,50,0.00,,,0.00,281.0,meteohub,2013-06-15 17:07:00,
2013-06-15 13:12:00,79.5,61.9,30.06,NNE,28,0.0,4.0,52,0.00,,,0.00,1313.0,meteohub,2013-06-15 17:12:00,
2013-06-15 13:17:00,79.7,59.9,30.06,SE,144,0.0,4.0,48,0.00,,,0.00,362.0,meteohub,2013-06-15 17:17:00,
2013-06-15 13:22:00,79.7,58.8,30.06,SE,144,0.0,4.0,46,0.00,,,0.00,306.0,meteohub,2013-06-15 17:22:00,
2013-06-15 13:27:00,79.5,62.4,30.05,SE,140,0.0,4.0,53,0.00,,,0.00,264.0,meteohub,2013-06-15 17:27:00,
2013-06-15 13:32:00,79.2,61.0,30.05,SE,140,0.0,4.0,51,0.00,,,0.00,285.0,meteohub,2013-06-15 17:32:00,
2013-06-15 13:37:00,78.6,63.5,30.05,SE,140,0.0,3.0,57,0.00,,,0.00,302.0,meteohub,2013-06-15 17:37:00,
2013-06-15 13:42:00,78.3,63.1,30.05,SE,140,0.0,2.0,57,0.00,,,0.00,243.0,meteohub,2013-06-15 17:42:00,
2013-06-15 13:49:00,78.3,63.1,30.05,SE,140,0.0,0.0,57,0.00,,,0.00,1151.0,meteohub,2013-06-15 17:49:00,
2013-06-15 13:55:00,79.0,59.4,30.05,SE,141,0.0,3.0,48,0.00,,,0.00,1139.0,meteohub,2013-06-15 17:55:00,
2013-06-15 14:01:00,80.1,59.2,30.05,SE,141,0.0,3.0,46,0.00,,,0.00,1157.0,meteohub,2013-06-15 18:01:00,
2013-06-15 14:07:00,80.6,60.3,30.05,ESE,116,4.0,5.0,47,0.00,,,0.00,1055.0,meteohub,2013-06-15 18:07:00,
2013-06-15 14:12:00,80.8,61.0,30.05,SE,132,3.0,5.0,48,0.00,,,0.00,1035.0,meteohub,2013-06-15 18:12:00,
2013-06-15 14:17:00,81.0,61.7,30.04,East,81,4.0,6.0,49,0.00,,,0.00,1013.0,meteohub,2013-06-15 18:17:00,
2013-06-15 14:22:00,81.3,59.7,30.04,SE,146,2.0,8.0,45,0.00,,,0.00,988.0,meteohub,2013-06-15 18:22:00,
2013-06-15 14:27:00,81.1,59.5,30.04,SSE,147,0.0,8.0,45,0.00,,,0.00,972.0,meteohub,2013-06-15 18:27:00,
2013-06-15 14:32:00,81.0,59.4,30.04,East,97,2.0,8.0,45,0.00,,,0.00,967.0,meteohub,2013-06-15 18:32:00,
2013-06-15 14:37:00,81.3,63.5,30.04,SSW,206,0.0,8.0,52,0.00,,,0.00,958.0,meteohub,2013-06-15 18:37:00,
2013-06-15 14:42:00,81.5,58.6,30.04,SW,234,0.0,4.0,43,0.00,,,0.00,953.0,meteohub,2013-06-15 18:42:00,
2013-06-15 14:47:00,82.0,63.1,30.03,SW,234,0.0,4.0,50,0.00,,,0.00,944.0,meteohub,2013-06-15 18:47:00,
2013-06-15 14:52:00,82.6,62.6,30.03,SSE,155,0.0,4.0,48,0.00,,,0.00,953.0,meteohub,2013-06-15 18:52:00,
2013-06-15 14:57:00,83.1,61.3,30.03,WSW,255,1.0,3.0,45,0.00,,,0.00,933.0,meteohub,2013-06-15 18:57:00,
2013-06-15 15:02:00,83.1,60.8,30.03,NNE,14,1.0,5.0,44,0.00,,,0.00,930.0,meteohub,2013-06-15 19:02:00,
2013-06-15 15:07:00,83.5,59.9,30.03,NNE,13,3.0,5.0,42,0.00,,,0.00,918.0,meteohub,2013-06-15 19:07:00,
2013-06-15 15:12:00,83.7,60.1,30.03,WNW,284,0.0,5.0,42,0.00,,,0.00,907.0,meteohub,2013-06-15 19:12:00,
2013-06-15 15:17:00,83.7,61.9,30.03,North,5,0.0,5.0,45,0.00,,,0.00,886.0,meteohub,2013-06-15 19:17:00,
2013-06-15 15:22:00,83.7,61.9,30.02,West,261,3.0,5.0,45,0.00,,,0.00,896.0,meteohub,2013-06-15 19:22:00,
2013-06-15 15:27:00,83.3,60.3,30.02,NNE,32,1.0,6.0,43,0.00,,,0.00,893.0,meteohub,2013-06-15 19:27:00,
2013-06-15 15:32:00,83.3,59.7,30.02,East,82,0.0,6.0,42,0.00,,,0.00,886.0,meteohub,2013-06-15 19:32:00,
2013-06-15 15:37:00,83.3,63.3,30.02,North,5,0.0,4.0,48,0.00,,,0.00,860.0,meteohub,2013-06-15 19:37:00,
2013-06-15 15:42:00,83.7,60.1,30.02,SW,234,1.0,4.0,42,0.00,,,0.00,847.0,meteohub,2013-06-15 19:42:00,
2013-06-15 15:47:00,83.7,63.5,30.02,East,84,0.0,3.0,48,0.00,,,0.00,865.0,meteohub,2013-06-15 19:47:00,
2013-06-15 15:52:00,83.5,61.7,30.02,NE,38,0.0,3.0,45,0.00,,,0.00,146.0,meteohub,2013-06-15 19:52:00,
2013-06-15 15:57:00,83.5,62.2,30.02,NNE,17,1.0,5.0,46,0.00,,,0.00,842.0,meteohub,2013-06-15 19:57:00,
2013-06-15 16:02:00,83.5,61.2,30.02,NW,315,5.0,5.0,44,0.00,,,0.00,153.0,meteohub,2013-06-15 20:02:00,
2013-06-15 16:07:00,82.8,59.2,30.02,South,171,4.0,7.0,42,0.00,,,0.00,795.0,meteohub,2013-06-15 20:07:00,
2013-06-15 16:12:00,82.4,59.5,30.02,SSE,159,3.0,7.0,43,0.00,,,0.00,125.0,meteohub,2013-06-15 20:12:00,
2013-06-15 16:17:00,82.2,59.4,30.01,SSE,154,1.0,7.0,43,0.00,,,0.00,731.0,meteohub,2013-06-15 20:17:00,
2013-06-15 16:22:00,82.2,59.9,30.01,SSE,163,0.0,6.0,44,0.00,,,0.00,729.0,meteohub,2013-06-15 20:22:00,
2013-06-15 16:27:00,82.0,61.0,30.01,South,188,0.0,6.0,46,0.00,,,0.00,744.0,meteohub,2013-06-15 20:27:00,
2013-06-15 16:32:00,82.0,61.0,30.01,SSE,150,0.0,6.0,46,0.00,,,0.00,738.0,meteohub,2013-06-15 20:32:00,
2013-06-15 16:37:00,82.2,58.6,30.01,SSW,192,4.0,5.0,42,0.00,,,0.00,700.0,meteohub,2013-06-15 20:37:00,
2013-06-15 16:42:00,82.4,58.8,30.01,East,94,0.0,9.0,42,0.00,,,0.00,666.0,meteohub,2013-06-15 20:42:00,
2013-06-15 16:47:00,82.6,58.5,30.01,South,173,4.0,9.0,41,0.00,,,0.00,663.0,meteohub,2013-06-15 20:47:00,
2013-06-15 16:52:00,82.8,59.2,30.01,ESE,117,1.0,9.0,42,0.00,,,0.00,643.0,meteohub,2013-06-15 20:52:00,
2013-06-15 16:57:00,82.8,61.7,30.01,ESE,117,0.0,5.0,46,0.00,,,0.00,612.0,meteohub,2013-06-15 20:57:00,
2013-06-15 17:02:00,83.1,63.1,30.01,East,80,5.0,5.0,48,0.00,,,0.00,598.0,meteohub,2013-06-15 21:02:00,
2013-06-15 17:07:00,83.1,59.5,30.01,West,269,1.0,5.0,42,0.00,,,0.00,584.0,meteohub,2013-06-15 21:07:00,
2013-06-15 17:12:00,83.1,60.1,30.01,South,176,3.0,9.0,43,0.00,,,0.00,568.0,meteohub,2013-06-15 21:12:00,
2013-06-15 17:17:00,83.1,61.3,30.01,NNW,346,2.0,9.0,45,0.00,,,0.00,554.0,meteohub,2013-06-15 21:17:00,
2013-06-15 17:22:00,83.1,61.3,30.01,South,178,0.0,9.0,45,0.00,,,0.00,536.0,meteohub,2013-06-15 21:22:00,
2013-06-15 17:27:00,82.6,60.3,30.01,South,176,1.0,4.0,44,0.00,,,0.00,116.0,meteohub,2013-06-15 21:27:00,
2013-06-15 17:32:00,82.2,61.2,30.01,SE,144,0.0,4.0,46,0.00,,,0.00,520.0,meteohub,2013-06-15 21:32:00,
2013-06-15 17:37:00,82.4,60.6,30.01,SSE,167,6.0,6.0,45,0.00,,,0.00,485.0,meteohub,2013-06-15 21:37:00,
2013-06-15 17:42:00,82.4,60.6,30.01,South,170,0.0,10.0,45,0.00,,,0.00,455.0,meteohub,2013-06-15 21:42:00,
2013-06-15 17:47:00,82.6,60.8,30.01,NW,306,2.0,10.0,45,0.00,,,0.00,438.0,meteohub,2013-06-15 21:47:00,
2013-06-15 17:52:00,82.6,61.5,30.01,NNW,339,3.0,10.0,46,0.00,,,0.00,422.0,meteohub,2013-06-15 21:52:00,
2013-06-15 17:57:00,82.4,60.1,30.00,South,175,0.0,5.0,44,0.00,,,0.00,404.0,meteohub,2013-06-15 21:57:00,
2013-06-15 18:02:00,82.4,61.9,30.01,South,190,4.0,4.0,47,0.00,,,0.00,390.0,meteohub,2013-06-15 22:02:00,
2013-06-15 18:07:00,82.2,61.2,30.01,South,171,0.0,7.0,46,0.00,,,0.00,369.0,meteohub,2013-06-15 22:07:00,
2013-06-15 18:12:00,82.2,62.8,30.00,East,88,1.0,7.0,49,0.00,,,0.00,353.0,meteohub,2013-06-15 22:12:00,
2013-06-15 18:17:00,82.2,60.6,29.99,SSE,156,0.0,7.0,45,0.00,,,0.00,339.0,meteohub,2013-06-15 22:17:00,
2013-06-15 18:22:00,82.2,60.6,29.99,SSW,198,2.0,5.0,45,0.00,,,0.00,322.0,meteohub,2013-06-15 22:22:00,
2013-06-15 18:27:00,82.2,62.2,29.99,SSW,194,1.0,5.0,48,0.00,,,0.00,306.0,meteohub,2013-06-15 22:27:00,
2013-06-15 18:32:00,81.9,61.9,29.99,SSE,154,1.0,5.0,48,0.00,,,0.00,290.0,meteohub,2013-06-15 22:32:00,
2013-06-15 18:37:00,81.7,61.7,29.99,North,350,0.0,5.0,48,0.00,,,0.00,272.0,meteohub,2013-06-15 22:37:00,
2013-06-15 18:42:00,81.7,61.7,30.00,NW,311,0.0,5.0,48,0.00,,,0.00,253.0,meteohub,2013-06-15 22:42:00,
2013-06-15 18:47:00,81.7,63.3,30.00,NNW,340,0.0,5.0,51,0.00,,,0.00,241.0,meteohub,2013-06-15 22:47:00,
2013-06-15 18:52:00,81.5,63.1,30.00,ESE,122,0.0,3.0,51,0.00,,,0.00,216.0,meteohub,2013-06-15 22:52:00,
2013-06-15 18:57:00,81.1,64.4,30.00,ESE,123,0.0,3.0,54,0.00,,,0.00,144.0,meteohub,2013-06-15 22:57:00,
2013-06-15 19:02:00,80.8,66.6,30.00,ESE,123,0.0,3.0,59,0.00,,,0.00,139.0,meteohub,2013-06-15 23:02:00,
2013-06-15 19:07:00,80.4,66.6,30.00,ESE,123,0.0,2.0,60,0.00,,,0.00,144.0,meteohub,2013-06-15 23:07:00,
2013-06-15 19:12:00,80.1,66.4,30.01,ESE,123,0.0,1.0,60,0.00,,,0.00,46.0,meteohub,2013-06-15 23:12:00,
2013-06-15 19:17:00,79.7,66.0,30.01,ESE,123,0.0,1.0,60,0.00,,,0.00,58.0,meteohub,2013-06-15 23:17:00,
2013-06-15 19:22:00,79.2,65.8,30.00,ESE,123,0.0,1.0,61,0.00,,,0.00,44.0,meteohub,2013-06-15 23:22:00,
2013-06-15 19:27:00,78.8,65.5,30.00,ESE,123,0.0,0.0,61,0.00,,,0.00,39.0,meteohub,2013-06-15 23:27:00,
2013-06-15 19:32:00,78.1,65.3,30.01,ESE,123,0.0,0.0,62,0.00,,,0.00,44.0,meteohub,2013-06-15 23:32:00,
2013-06-15 19:37:00,77.4,65.5,30.01,ESE,123,0.0,0.0,64,0.00,,,0.00,32.0,meteohub,2013-06-15 23:37:00,
2013-06-15 19:42:00,76.8,65.8,30.01,SSW,196,0.0,0.0,66,0.00,,,0.00,25.0,meteohub,2013-06-15 23:42:00,
2013-06-15 19:47:00,75.9,65.5,30.01,SSW,196,0.0,0.0,67,0.00,,,0.00,23.0,meteohub,2013-06-15 23:47:00,
2013-06-15 19:52:00,75.2,65.1,30.01,SSW,196,0.0,0.0,68,0.00,,,0.00,21.0,meteohub,2013-06-15 23:52:00,
2013-06-15 19:57:00,74.5,64.8,30.01,SSW,196,0.0,0.0,69,0.00,,,0.00,21.0,meteohub,2013-06-15 23:57:00,
2013-06-15 20:02:00,74.1,65.3,30.01,SSW,196,0.0,0.0,71,0.00,,,0.00,19.0,meteohub,2013-06-16 00:02:00,
2013-06-15 20:07:00,73.4,64.9,30.01,SSW,196,0.0,1.0,72,0.00,,,0.00,18.0,meteohub,2013-06-16 00:07:00,
2013-06-15 20:12:00,72.7,63.9,30.01,SSW,196,0.0,1.0,71,0.00,,,0.00,12.0,meteohub,2013-06-16 00:12:00,
2013-06-15 20:17:00,72.3,63.9,30.01,SSW,196,0.0,1.0,72,0.00,,,0.00,11.0,meteohub,2013-06-16 00:17:00,
2013-06-15 20:22:00,71.8,63.0,30.01,SSW,196,0.0,0.0,71,0.00,,,0.00,11.0,meteohub,2013-06-16 00:22:00,
2013-06-15 20:27:00,71.4,63.1,30.01,SSW,196,0.0,0.0,72,0.00,,,0.00,9.0,meteohub,2013-06-16 00:27:00,
2013-06-15 20:32:00,71.1,63.1,30.01,SSW,196,0.0,0.0,73,0.00,,,0.00,7.0,meteohub,2013-06-16 00:32:00,
2013-06-15 20:37:00,70.7,62.8,30.01,SSW,196,0.0,1.0,73,0.00,,,0.00,0.0,meteohub,2013-06-16 00:37:00,
2013-06-15 20:42:00,70.3,62.4,30.01,SSW,196,0.0,1.0,73,0.00,,,0.00,0.0,meteohub,2013-06-16 00:42:00,
2013-06-15 20:47:00,70.0,63.1,30.01,SSW,196,0.0,1.0,76,0.00,,,0.00,0.0,meteohub,2013-06-16 00:47:00,
2013-06-15 20:52:00,69.8,63.0,30.01,SSW,196,0.0,0.0,76,0.00,,,0.00,0.0,meteohub,2013-06-16 00:52:00,
2013-06-15 20:57:00,69.4,63.0,30.01,SSE,148,0.0,2.0,77,0.00,,,0.00,0.0,meteohub,2013-06-16 00:57:00,
2013-06-15 21:02:00,69.1,63.3,30.02,SSE,148,0.0,2.0,79,0.00,,,0.00,0.0,meteohub,2013-06-16 01:02:00,
2013-06-15 21:07:00,68.9,63.1,30.02,SSE,148,0.0,2.0,79,0.00,,,0.00,0.0,meteohub,2013-06-16 01:07:00,
2013-06-15 21:12:00,68.5,63.1,30.02,SSE,148,0.0,0.0,80,0.00,,,0.00,0.0,meteohub,2013-06-16 01:12:00,
2013-06-15 21:17:00,68.2,63.1,30.02,SSE,148,0.0,0.0,81,0.00,,,0.00,0.0,meteohub,2013-06-16 01:17:00,
2013-06-15 21:22:00,67.8,63.1,30.02,SE,144,0.0,0.0,82,0.00,,,0.00,0.0,meteohub,2013-06-16 01:22:00,
2013-06-15 21:27:00,67.3,62.6,30.02,SE,144,0.0,0.0,82,0.00,,,0.00,0.0,meteohub,2013-06-16 01:27:00,
2013-06-15 21:32:00,67.1,62.4,30.02,SE,144,0.0,0.0,82,0.00,,,0.00,0.0,meteohub,2013-06-16 01:32:00,
2013-06-15 21:37:00,66.9,62.6,30.02,SE,144,0.0,0.0,83,0.00,,,0.00,0.0,meteohub,2013-06-16 01:37:00,
2013-06-15 21:42:00,66.6,62.2,30.02,SE,144,0.0,0.0,83,0.00,,,0.00,0.0,meteohub,2013-06-16 01:42:00,
2013-06-15 21:47:00,66.2,62.2,30.02,SE,144,0.0,0.0,84,0.00,,,0.00,0.0,meteohub,2013-06-16 01:47:00,
2013-06-15 21:52:00,66.0,62.1,30.03,SE,144,0.0,0.0,84,0.00,,,0.00,0.0,meteohub,2013-06-16 01:52:00,
2013-06-15 21:57:00,65.7,62.1,30.03,SE,144,0.0,0.0,85,0.00,,,0.00,0.0,meteohub,2013-06-16 01:57:00,
2013-06-15 22:02:00,65.5,61.9,30.03,SE,144,0.0,0.0,85,0.00,,,0.00,0.0,meteohub,2013-06-16 02:02:00,
2013-06-15 22:07:00,65.3,61.9,30.03,SE,144,0.0,0.0,86,0.00,,,0.00,0.0,meteohub,2013-06-16 02:07:00,
2013-06-15 22:12:00,65.1,61.9,30.03,SE,144,0.0,0.0,86,0.00,,,0.00,0.0,meteohub,2013-06-16 02:12:00,
2013-06-15 22:17:00,64.8,61.5,30.03,SE,144,0.0,0.0,86,0.00,,,0.00,0.0,meteohub,2013-06-16 02:17:00,
2013-06-15 22:22:00,64.6,61.5,30.03,SE,144,0.0,0.0,87,0.00,,,0.00,0.0,meteohub,2013-06-16 02:22:00,
2013-06-15 22:27:00,64.4,61.3,30.03,SE,144,0.0,0.0,87,0.00,,,0.00,0.0,meteohub,2013-06-16 02:27:00,
2013-06-15 22:32:00,64.2,61.2,30.03,SE,144,0.0,0.0,87,0.00,,,0.00,0.0,meteohub,2013-06-16 02:32:00,
2013-06-15 22:37:00,64.0,61.0,30.03,SE,144,0.0,0.0,87,0.00,,,0.00,0.0,meteohub,2013-06-16 02:37:00,
2013-06-15 22:42:00,63.9,61.2,30.03,SE,144,0.0,0.0,88,0.00,,,0.00,0.0,meteohub,2013-06-16 02:42:00,
2013-06-15 22:47:00,63.7,61.0,30.03,SE,144,0.0,0.0,88,0.00,,,0.00,0.0,meteohub,2013-06-16 02:47:00,
2013-06-15 22:52:00,63.5,60.8,30.03,SE,144,0.0,0.0,88,0.00,,,0.00,0.0,meteohub,2013-06-16 02:52:00,
2013-06-15 22:57:00,63.3,60.6,30.03,SE,144,0.0,0.0,88,0.00,,,0.00,0.0,meteohub,2013-06-16 02:57:00,
2013-06-15 23:02:00,63.0,60.3,30.03,SE,144,0.0,0.0,88,0.00,,,0.00,0.0,meteohub,2013-06-16 03:02:00,
2013-06-15 23:07:00,62.8,60.1,30.03,SE,144,0.0,0.0,88,0.00,,,0.00,0.0,meteohub,2013-06-16 03:07:00,
2013-06-15 23:12:00,62.8,60.1,30.03,SE,144,0.0,0.0,88,0.00,,,0.00,0.0,meteohub,2013-06-16 03:12:00,
2013-06-15 23:17:00,62.6,59.9,30.03,SE,144,0.0,0.0,88,0.00,,,0.00,0.0,meteohub,2013-06-16 03:17:00,
2013-06-15 23:22:00,62.4,60.1,30.03,SE,144,0.0,0.0,89,0.00,,,0.00,0.0,meteohub,2013-06-16 03:22:00,
2013-06-15 23:27:00,62.2,59.9,30.03,SE,144,0.0,0.0,89,0.00,,,0.00,0.0,meteohub,2013-06-16 03:27:00,
2013-06-15 23:32:00,62.1,59.7,30.03,SE,144,0.0,0.0,89,0.00,,,0.00,0.0,meteohub,2013-06-16 03:32:00,
2013-06-15 23:37:00,62.1,59.7,30.03,SE,144,0.0,0.0,89,0.00,,,0.00,0.0,meteohub,2013-06-16 03:37:00,
2013-06-15 23:42:00,61.9,59.5,30.04,SE,144,0.0,0.0,89,0.00,,,0.00,0.0,meteohub,2013-06-16 03:42:00,
2013-06-15 23:47:00,61.9,59.5,30.04,SE,144,0.0,0.0,89,0.00,,,0.00,0.0,meteohub,2013-06-16 03:47:00,
2013-06-15 23:52:00,61.7,59.4,30.04,SE,144,0.0,0.0,89,0.00,,,0.00,0.0,meteohub,2013-06-16 03:52:00,
2013-06-15 23:57:00,61.5,59.2,30.04,SE,144,0.0,0.0,89,0.00,,,0.00,0.0,meteohub,2013-06-16 03:57:00,